niederrhein-spotter.de
Homepage News Airport Weeze Airportfestival Planespotting Fotos Forum Sonstiges
 
Planespotting
· Fotopositionen
· Flugkarten
· Flugwetter
· Funkfrequenzen
 
Flugwetter
Roh-METAR
EDLV 251320Z 09004KT 010V130 9999 -DZ SCT010 BKN029 19/17 Q1015

‹bersetzung